Location: Bonac
(42.8765°N, 0.9753°E)
Time: 18:11:07
(UTC+00:00)

Cosmos 1953 - Visible Passes

Search period start: 11 April 2026 00:00
Search period end: 21 April 2026 00:00
Orbit: 471 x 486 km, 82.5° (Epoch: 11 April)

Date Brightness Start Highest point End Pass type
(mag) Time Alt. Az. Time Alt. Az. Time Alt. Az.
11 Apr 2.8 19:34:49 10° SSW 19:38:20 56° W 19:41:53 10° N visible
12 Apr 1.9 19:08:10 10° S 19:11:44 80° E 19:15:20 10° N visible
13 Apr 5.6 20:19:08 10° W 20:20:23 11° WNW 20:21:39 10° NW visible
14 Apr 5.2 19:51:00 10° WSW 19:53:36 19° WNW 19:56:12 10° NNW visible
15 Apr 4.3 19:23:39 10° SW 19:26:51 30° WNW 19:30:05 10° NNW visible
18 Apr 6.0 04:21:14 10° NE 04:22:30 11° ENE 04:23:44 10° E visible
18 Apr 5.9 19:41:00 10° W 19:42:06 11° WNW 19:43:13 10° NW visible
19 Apr 5.4 19:12:43 10° WSW 19:15:15 18° WNW 19:17:48 10° NNW visible
